Miscellaneous Local Product
Issued by NWS North Platte, NE

Home | Current Version | Previous Version | Graphics & Text | Print | Product List | Glossary On
Versions: 1 2 3 4 5 6 7 8 9 10 11 12 13 14 15 16 17 18 19 20 21 22 23 24 25 26 27 28 29 30 31 32 33 34 35 36 37 38 39 40 41 42 43 44 45 46 47 48 49 50
000
AXUS43 KLBF 040910
MISLBF


WESTERN AND NORTH CENTRAL NEBRASKA HOURLY WEATHER ROUNDUP
NATIONAL WEATHER SERVICE NORTH PLATTE NE
400 AM CDT MON MAY 04 2015

***STATIONS NOT REPORTING VARIABLES SUCH AS SKY/WEATHER OR
PRESSURE ARE PROVIDED BY THE NEBRASKA DEPARTMENT OF
ROADS...RAWS...AND APRS NETWORKS...AND ARE NOT UNDER
NATIONAL WEATHER SERVICE QUALITY CONTROL***

...OBSERVATIONS IN AND NEAR THE EASTERN PANHANDLE OF NEBRASKA...

CITY           SKY/WX    TMP DP  RH WIND       PRES   REMARKS
PINE RIDGE     CLOUDY    50  31  48 E12       30.09S
CHADRON        LGT RAIN  51  38  60 E9        30.10R
ALLIANCE       CLOUDY    51  37  58 E3        30.10R
SIDNEY         MOCLDY    49  37  63 E7        30.10R
WHITECLAY        N/A     51  28  41 E13         N/A
BIG SPRINGS      N/A     54  38  53 E8          N/A
$$

...OBSERVATIONS IN NORTH CENTRAL NEBRASKA...

CITY           SKY/WX    TMP DP  RH WIND       PRES   REMARKS
VALENTINE      PTCLDY    48  30  49 E5        30.10S
THEDFORD       PTCLDY    51  34  52 NE5       30.08R
AINSWORTH      PTCLDY    47  32  56 NE7       30.09S
O`NEILL        MOCLDY    50  37  60 N8        30.07S
ORD            CLOUDY    58  35  42 NE10      30.02R
BROKEN BOW     MOCLDY    57  36  45 NE15G23   30.04R
BROWNLEE         N/A     53  28  38 NE6         N/A
VALENTINE NWR    N/A     52  30  42 NE7         N/A
SPRINGVIEW       N/A     52  30  43 CALM        N/A
HALSEY           N/A     53  32  44 NE6G13      N/A
BREWSTER         N/A     56  36  47 E12         N/A
ROSE             N/A     52  35  52 N9          N/A
NEWPORT          N/A     47  31  54 N3          N/A
SARGENT          N/A     56  37  49 CALM        N/A
COMSTOCK         N/A     62  40  45 NE15        N/A
EWING            N/A     54  36  51 NE3         N/A
$$

...OBSERVATIONS IN SOUTHWEST NEBRASKA AND FAR NORTHEAST COLORADO...

CITY           SKY/WX    TMP DP  RH WIND       PRES   REMARKS
WRAY           FAIR      54  39  57 NE8       30.05S
IMPERIAL       CLOUDY    50  38  63 NE8       30.05F
OGALLALA       CLOUDY    55  35  48 E15       30.06F
NORTH PLATTE   MOCLDY    54  38  54 CALM      30.08R
MCCOOK         CLOUDY    58  38  47 NE14      30.00F
LEXINGTON      CLOUDY    58  39  50 SE3       30.06R
PAXTON           N/A     53  38  58 NE8         N/A
SUTHERLAND       N/A     51  35  53 E8          N/A
GOTHENBURG       N/A     58  36  44 N3          N/A
CALLAWAY         N/A     56  40  55 E8          N/A
$$

...NORTH PLATTE AREA...

CITY           SKY/WX    TMP DP  RH WIND       PRES   REMARKS
AIRPORT        MOCLDY    54  38  54 CALM      30.08R
DOWNTOWN         N/A     55  38  52 CALM        N/A
$$

...SOME WEATHER OBSERVATIONS FROM AROUND THE REGION...

CITY           SKY/WX    TMP DP  RH WIND       PRES   REMARKS
DENVER         CLOUDY    50  46  86 E7        30.10R
LARAMIE        CLOUDY    43  40  89 S10       30.10S
CHEYENNE       LGT RAIN  45  40  82 SE10      30.11F
SCOTTSBLUFF    MOCLDY    51  40  65 SE7       30.10R
RAPID CITY     CLOUDY    51  32  48 W3        30.12R
PIERRE         CLOUDY    44  25  47 E3        30.11R
WINNER         FAIR      49  26  41 E3        30.11S
SIOUX FALLS    PTCLDY    50  30  46 N10       30.06S
OMAHA          CLOUDY    61  54  77 NE7       29.92F
GRAND ISLAND   CLOUDY    61  39  44 NE15G26   29.97R
KANSAS CITY    CLOUDY    68  55  63 SW10      29.94R
WICHITA        MOCLDY    62  53  72 S10       29.94S
HAYS           MOCLDY    63  48  59 N10       29.94R
LIBERAL        CLOUDY    61  54  77 S6        29.96F
GOODLAND       LGT RAIN  55  44  66 NE12      30.01F
$$



USA.gov is the U.S. government's official web portal to all federal, state and local government web resources and services.